STARLINK-34790

Last updated on Mon Oct 20 2025 00:02:06 GMT+0000 (Coordinated Universal Time)

1 65690U 25212Q 25292.25002315 -.02055297 00000+0 -59536-1 0 9996 2 65690 53.1597 282.8650 0001321 76.0275 347.9413 15.38775150 5517
UTC large
Height (km)
Speed (km/s)
/
Latitude / Longitude
Inclination (degrees)
Orbital Period (minutes)
Azimuth
Elevation
Range (km)
Doppler Factor

Next 0 passes for location: London (51.5072 / 0.1276)

Sorry there are no passes over London.